Dewpoint
11 12 13 13 13 14 14 15 15 15 16 16 18 18 19 20 22 22 24 25 26 28
11 11 12 13 13 14 14 14 13 15 16 16 17 17 18 19 20 20 22 23 25 26
11 12 12 12 12 13 13 13 14 14 15 16 16 17 17 17 19 19 21 21 22 23
10 10 10 10 12 12 13 13 14 14 15 15 16 16 17 17 17 18 19 20 21 22
10 10 9 9 10 12 13 14 14 14 15 15 15 16 16 17 17 18 19 20 21 21
10 10 10 9 10 11 12 14 14 14 14 15 15 15 16 16 17 18 18 20 21 21
10 10 10 10 10 10 11 13 14 14 14 15 15 15 16 16 17 18 18 19 20 22
9 10 11 11 11 10 10 12 13 14 14 15 15 15 15 17 19 20 21 22 22 23
9 10 11 11 10 10 11 11 12 13 14 15 15 16 17 19 24 25 24 23 23 24
8 9 10 10 10 10 10 11 12 13 14 15 15 16 19 19 23 25 25 24 24 24
8 8 8 9 10 10 10 11 12 13 14 15 17 17 17 19 22 24 24 23 23 22
6 7 7 8 8 10 11 12 12 13 15 16 15 16 18 19 21 23 23 22 22 22
7 7 7 8 9 11 12 12 13 14 14 15 14 16 17 18 23 24 24 24 23 21
6 7 8 9 10 11 12 12 11 13 13 13 15 15 17 18 19 22 23 22 22 22
Wind_Speed
12 11 12 13 15 15 16 17 19 20 20 21 20 20 20 19 19 19 17 20 19 19
13 13 14 16 16 16 17 17 19 20 22 22 22 21 21 20 22 21 20 19 20 20
15 14 15 16 18 18 18 19 20 21 21 22 22 22 22 21 21 22 21 19 21 21
16 16 16 17 18 18 20 20 21 22 23 23 23 23 23 23 24 24 24 22 22 24
16 16 17 17 18 19 21 21 22 22 23 24 24 24 24 25 24 26 26 26 24 25
16 16 17 18 20 20 21 22 22 23 24 25 25 25 25 25 26 26 26 27 26 25
16 16 18 19 20 21 21 23 23 23 25 25 26 26 26 26 26 26 27 26 27 26
16 17 18 19 20 21 22 22 23 25 25 25 25 23 25 25 26 27 28 28 27 26
16 17 18 20 21 22 22 23 23 24 26 26 24 30 35 33 27 26 28 29 29 27
17 18 19 21 22 22 23 23 24 25 25 27 26 33 35 35 27 26 26 27 27 28
17 18 20 21 22 23 22 24 25 25 26 27 25 34 35 35 28 25 26 27 28 29
17 19 20 22 23 23 23 24 25 25 27 26 28 33 34 33 25 24 26 26 27 28
17 19 21 22 24 23 22 26 24 27 26 28 29 31 34 32 24 25 23 24 25 32
17 19 20 22 21 24 25 24 26 26 26 26 25 27 33 34 27 23 24 24 24 23
Wind_Direction
329 324 320 315 313 311 308 306 309 309 313 310 309 309 306 302 300 296 293 291 284 283
330 323 314 312 308 304 302 304 306 307 307 306 304 303 303 299 297 294 291 287 285 280
320 316 314 310 305 303 303 305 305 304 303 302 301 299 298 296 294 293 291 289 286 284
318 316 313 310 307 307 307 306 303 302 300 298 297 295 294 292 292 288 287 287 288 285
311 312 310 308 308 308 304 303 300 298 296 295 294 294 290 289 288 288 289 288 286 284
306 306 305 306 305 304 302 299 299 297 295 294 292 291 289 286 285 283 282 282 281 282
302 303 302 302 302 301 301 299 297 296 294 292 290 288 287 285 283 280 277 276 274 272
300 300 300 300 301 302 300 296 295 295 293 291 289 288 286 283 280 278 276 275 273 270
300 303 303 303 304 302 299 297 297 294 293 292 289 289 291 290 285 279 276 275 275 272
296 299 304 303 302 301 300 300 296 294 291 290 289 291 292 292 288 282 276 275 274 276
291 298 302 301 299 300 301 298 297 295 292 291 290 296 297 295 290 282 276 275 275 273
295 298 301 301 301 299 300 299 298 294 293 295 296 295 294 298 292 283 276 271 269 268
291 294 295 296 298 298 296 297 298 298 296 295 296 295 299 297 288 284 282 278 272 271
286 287 290 295 296 294 297 298 299 297 298 294 292 296 299 303 301 293 287 281 277 273